Seward, AK

2:28 PM AKDT on March 28, 2017 (GMT -0800)
Seward

Weather History for PAWD - December, 2012

Change the Weather History Date:

Saturday, December 8, 2012

  Actual Average Record
Temperature  
Mean Temperature 28 °F -  
Max Temperature 36 °F 30 °F 45 °F (1960)
Min Temperature 19 °F 22 °F -3 °F (1975)
Degree Days  
Heating Degree Days 38    
Moisture  
Dew Point 27 °F    
Average Humidity 89    
Maximum Humidity 100    
Minimum Humidity 81    
Precipitation  
Precipitation 0.06 in - - ()
Sea Level Pressure  
Sea Level Pressure 29.55 in    
Wind  
Wind Speed 2 mph (NW)    
Max Wind Speed 9 mph    
Max Gust Speed -    
Visibility 6 miles    
Events Fog , Snow    
Averages and records for this station are not official NWS values.
T = Trace of Precipitation, MM = Missing Value Source: NWS Daily Summary

Daily Weather History Graph

Daily Weather History Graph

Search for Another Location

Airport or City:

Trip Planner

Search our weather history database for the weather conditions in past years. The results will help you decide how hot, cold, wet, or windy it might be!

Date:

Astronomy

Dec. 08, 2012 Rise Set
Actual Time 9:47 AM AKST 3:51 PM AKST
Civil Twilight 8:51 AM AKST 4:48 PM AKST
Nautical Twilight 7:54 AM AKST 5:44 PM AKST
Astronomical Twilight 7:03 AM AKST 6:36 PM AKST
Moon 3:12 AM AKST (12/8) 1:31 PM AKST (12/8)
Length of Visible Light 7h 57m
Length of Day
6h 04m
Waning Crescent, 27% of the Moon is Illuminated
Dec 8
Waning Crescent
Dec 12
New
Dec 19
First Quarter
Dec 28
Full
Jan 4
Last Quarter

Hourly Weather History & Observations

Time (AKST) Temp. Windchill Dew Point Humidity Pressure Visibility Wind Dir Wind Speed Gust Speed Precip Events Conditions
12:53 AM 19.0 °F - 16.0 °F 88% 29.90 in 10.0 mi Calm Calm - 0.00 in   Overcast
1:53 AM 19.0 °F - 16.0 °F 88% 29.89 in 10.0 mi Calm Calm - 0.00 in   Overcast
2:53 AM 19.9 °F 14.9 °F 17.1 °F 89% 29.88 in 9.0 mi North 3.5 mph - 0.00 in Snow Light Snow
3:53 AM 21.9 °F 15.7 °F 18.0 °F 85% 29.86 in 10.0 mi NNE 4.6 mph - 0.00 in   Overcast
4:53 AM 23.0 °F 18.4 °F 19.9 °F 88% 29.85 in 10.0 mi NW 3.5 mph - N/A   Overcast
5:53 AM 24.1 °F - 21.0 °F 88% 29.84 in 10.0 mi Calm Calm - N/A   Overcast
6:53 AM 24.1 °F 19.7 °F 21.0 °F 88% 29.83 in 10.0 mi North 3.5 mph - N/A   Overcast
7:53 AM 25.0 °F 20.7 °F 21.9 °F 88% 29.81 in 10.0 mi North 3.5 mph - N/A   Overcast
8:53 AM 25.0 °F - 23.0 °F 92% 29.78 in 10.0 mi Calm Calm - N/A   Overcast
9:53 AM 26.1 °F - 23.0 °F 88% 29.75 in 10.0 mi Calm Calm - N/A   Overcast
10:53 AM 27.0 °F - 25.0 °F 92% 29.73 in 10.0 mi Calm Calm - N/A   Overcast
11:53 AM 28.9 °F - 26.1 °F 89% 29.70 in 5.0 mi Calm Calm - 0.00 in Snow Light Snow
12:42 PM 30.2 °F - 26.6 °F 86% 29.66 in 2.5 mi Calm Calm - 0.00 in Snow Light Snow
12:48 PM 30.2 °F - 26.6 °F 86% 29.65 in 1.8 mi Calm Calm - 0.00 in Snow Light Snow
12:53 PM 30.0 °F - 28.0 °F 92% 29.65 in 1.5 mi Calm Calm - 0.00 in Snow Light Snow
1:21 PM 28.4 °F - 28.4 °F 100% 29.62 in 2.5 mi Calm Calm - 0.00 in Snow Light Snow
1:36 PM 28.4 °F - 28.4 °F 100% 29.60 in 1.0 mi Calm Calm - 0.00 in Snow Light Snow
1:53 PM 28.9 °F - 28.0 °F 96% 29.59 in 0.5 mi Calm Calm - 0.00 in Fog , Snow Snow
2:34 PM 33.8 °F 30.8 °F 30.2 °F 87% 29.53 in 1.2 mi NW 3.5 mph - 0.00 in Snow Light Snow
2:53 PM 32.0 °F 27.5 °F 30.0 °F 92% 29.51 in 1.2 mi NW 4.6 mph - 0.00 in Snow Light Snow
3:01 PM 33.8 °F 29.6 °F 30.2 °F 87% 29.50 in 1.0 mi NW 4.6 mph - 0.00 in Snow Light Snow
3:10 PM 33.8 °F - 30.2 °F 87% 29.49 in 1.2 mi Calm Calm - 0.00 in Snow Light Snow
3:32 PM 33.8 °F 28.6 °F 30.2 °F 87% 29.47 in 1.0 mi NW 5.8 mph - 0.00 in Snow Light Snow
3:53 PM 34.0 °F 29.8 °F 30.9 °F 89% 29.46 in 1.0 mi WNW 4.6 mph - 0.00 in Snow Light Snow
4:00 PM 33.8 °F 28.6 °F 30.2 °F 87% 29.46 in 1.5 mi WNW 5.8 mph - 0.00 in Snow Light Snow
4:28 PM 33.8 °F 27.0 °F 30.2 °F 87% 29.43 in 1.5 mi NW 8.1 mph - 0.00 in Snow Light Snow
4:53 PM 33.1 °F 27.7 °F 32.0 °F 96% 29.43 in 1.2 mi NW 5.8 mph - 0.00 in Snow Light Snow
5:18 PM 33.8 °F 29.6 °F 30.2 °F 87% 29.40 in 3.0 mi WNW 4.6 mph - 0.00 in Snow Light Snow
5:25 PM 33.8 °F 27.7 °F 30.2 °F 87% 29.39 in 4.0 mi NW 6.9 mph - 0.00 in Snow Light Snow
5:53 PM 34.0 °F 28.8 °F 30.9 °F 89% 29.37 in 5.0 mi WNW 5.8 mph - 0.00 in Snow Light Snow
6:53 PM 35.1 °F 28.6 °F 30.9 °F 85% 29.35 in 3.0 mi NW 8.1 mph - 0.00 in Snow Light Snow
7:16 PM 35.6 °F 28.6 °F 30.2 °F 81% 29.32 in 4.0 mi WNW 9.2 mph - 0.00 in Snow Light Snow
7:36 PM 35.6 °F 28.6 °F 30.2 °F 81% 29.31 in 4.0 mi WNW 9.2 mph - 0.00 in Snow Light Snow
7:53 PM 35.1 °F 28.6 °F 30.9 °F 85% 29.30 in 7.0 mi NW 8.1 mph - 0.01 in Snow Light Snow
8:46 PM 35.6 °F 29.2 °F 30.2 °F 81% 29.26 in 9.0 mi WNW 8.1 mph - 0.02 in Snow Light Snow
8:53 PM 36.0 °F 32.1 °F 30.9 °F 82% 29.26 in 9.0 mi Variable 4.6 mph - 0.03 in   Overcast
9:53 PM 34.0 °F 31.0 °F 32.0 °F 92% 29.24 in 10.0 mi North 3.5 mph - 0.01 in   Overcast
10:53 PM 33.1 °F - 32.0 °F 96% 29.23 in 10.0 mi Calm Calm - 0.01 in   Overcast
11:53 PM 33.1 °F - 32.0 °F 96% 29.24 in 10.0 mi Calm Calm - N/A   Overcast